FREGAT DEB (TANK), 37347

Orbit data source: Space-Track

FREGAT DEB (TANK), 37347 is space debris in LEO originally from a launch on Thu, 20 Jan 2011 UTC launched from the Tyuratam Missile And Space Complex (TTMTR). Debris objects in space refer to the collection of defunct objects orbiting the Earth. Examples of debris include non-operational satellites, rocket bodies, and fragments generated from explosions, collisions, or faulty payload assembly.

Loading next visibility...
Identifier
37347, 2011-001D
Orbit
LEO
Country
Flag of CISCIS
Related business
Manufacturer
Lavochkin
Mission
Spacecraft
Bus & Motor
FREGAT SBB, Unknown motor
Mass
360 kg wet, 360 kg dry
Launch date (UTC)
2011-01-20 (15 years ago)
Launch vehicle
Unknown
Launch site
Tyuratam Missile And Space Complex (TTMTR)
Object type
Payload
Rocket body
Debris
Shape & HBR
Torus, 1.9 m
Radar Cross Section
6.703 m², Large (>1 m²)

Expand to show TLE details & history
Last TLE update: 2 days ago

TLE from 2 days ago
0 FREGAT DEB (TANK)
1 37347U 11001D   26171.39780968  .00038153  61609-5  98693-3 0  9999
2 37347  50.2955 157.8079 1209229  18.9122 345.2910 13.14591897656376
Epoch: 2026-06-20T09:32Z
TLE epoch observation values (Epoch: 2026-06-20T09:32:50.756Z)
Latitude
0.00001°
Longitude
105.98342°
Altitude
327.635 km
Speed
8.147 km/s
True Right ascension
10h 31m 13s
True Declination
0° 00' 00"
Sunlit
Object was in daylight at epoch
Visualization orbit readout
Latitude
Unknown
Longitude
Unknown
Altitude
Unknown
Speed
Unknown
Apparent Right ascension
Unknown
Apparent Declination
Unknown
Sunlit
N/A
Visualization observer readout
Local Sidereal Time
23:20:10
Azimuth
Unknown
Elevation
Unknown
Doppler factor
Unknown
Orbital elements
Apogee altitude
2,123.228 km
Perigee altitude
289.008 km
Semi-major axis
7,584.255 km
Eccentricity
0.12092
Inclination
50.2955°
RAAN
157.8079°
Arg. of periapsis
18.9122°
True anomaly
341.17873°
Mean anomaly
345.291°
Eccentric anomaly
343.30007°
Mean motion
3.28605 °/min
Orbital period
109.55 mins
BSTAR
0.00098693
Loading maneuver chart data...
Computing Atmospheric mass density...
Loading historical data...
Loading historical data...
Loading historical data...
Loading historical data...
Loading historical data...
Loading historical data...
Loading historical data...

Documentation

Showing up to 5 results
|